Location: LDNL
(36.4545°S, 141.6685°E)
Time: 11:05:23
(UTC+10:00)

Vanguard 3 - Pass Details

Date: 26 January 2022
Orbit: 508 x 3258 km, 33.3° (Epoch: 25 May)

Event Time Altitude Azimuth Distance (km) Brightness Sun altitude
Rises 23:33:59 0° 332° (NNW) 3,519 - -26.7°
Reaches altitude 10° 23:36:28 10° 344° (NNW) 2,862 - -27.0°
Maximum altitude 23:42:31 29° 41° (NE) 2,414 - -27.7°
Exits shadow 23:49:53 15° 89° (E) 4,016 10.4 -28.5°
Drops below altitude 10° 23:52:01 10° 94° (E) 4,619 10.7 -28.7°
Sets 23:57:18 0° 103° (ESE) 6,118 11.5 -29.2°
